Weather History for Jeddah, Saudi Arabia

Change the Weather History Date:

Thursday, February 14, 2013

  Actual Average Record
Temperature  
Mean Temperature 76 °F -  
Max Temperature 87 °F 84 °F 96 °F (2012)
Min Temperature 66 °F 64 °F 57 °F (1998)
Cooling Degree Days 12    
Growing Degree Days 26 (Base 50)    
Moisture  
Dew Point 65 °F    
Average Humidity 66    
Maximum Humidity 88    
Minimum Humidity 43    
Precipitation  
Precipitation 0.00 in 0.00 in - ()
Sea Level Pressure  
Sea Level Pressure 29.84 in    
Wind  
Wind Speed 4 mph ()    
Max Wind Speed 12 mph    
Max Gust Speed -    
Visibility 5.0 miles    
Events      
Averages and records for this station are not official NWS values.
T = Trace of Precipitation, MM = Missing Value Source: Averaged Metar Reports

Daily Weather History Graph

Daily Weather History Graph

Search for Another Location

Airport:

Trip Planner

Search our weather history database for the weather conditions in past years. The results will help you decide how hot, cold, wet, or windy it might be!

Date:

Astronomy

Feb. 14, 2013 Rise Set
Actual Time 6:54 AM AST 6:20 PM AST
Civil Twilight 6:32 AM AST 6:43 PM AST
Nautical Twilight 6:05 AM AST 7:09 PM AST
Astronomical Twilight 5:39 AM AST 7:35 PM AST
Moon 9:23 AM AST (2/14) 10:18 PM AST (2/14)
Length of Visible Light 12h 11m
Length of Day
11h 25m
Waxing Crescent, 18% of the Moon is Illuminated
Feb 14
Waxing Crescent
Feb 17
First Quarter
Feb 25
Full
Mar 5
Last Quarter
Mar 11
New

Hourly Weather History & Observations

Time (AST) Temp. Heat Index Dew Point Humidity Pressure Visibility Wind Dir Wind Speed Gust Speed Precip Events Conditions
12:00 AM 73.4 °F - 64.4 °F 73% 29.83 in - WSW 4.6 mph - N/A   Clear
1:00 AM 73.4 °F - 64.4 °F 73% 29.83 in - NE 3.5 mph - N/A   Clear
2:00 AM 73.4 °F - 64.4 °F 73% 29.80 in - Calm Calm - N/A   Clear
3:00 AM 71.6 °F - 62.6 °F 73% 29.80 in - NNE 3.5 mph - N/A   Clear
4:00 AM 71.6 °F - 64.4 °F 78% 29.80 in - NE 4.6 mph - N/A   Clear
5:00 AM 69.8 °F - 64.4 °F 83% 29.80 in - NNE 4.6 mph - N/A   Clear
6:00 AM 68.0 °F - 62.6 °F 83% 29.83 in - Calm Calm - N/A   Clear
7:00 AM 66.2 °F - 62.6 °F 88% 29.83 in 5.0 mi Calm Calm - N/A   Clear
8:00 AM 71.6 °F - 64.4 °F 78% 29.86 in - Calm Calm - N/A   Clear
9:00 AM 77.0 °F - 66.2 °F 69% 29.89 in - Calm Calm - N/A   Clear
10:00 AM 78.8 °F - 68.0 °F 69% 29.89 in - Calm Calm - N/A   Clear
11:00 AM 82.4 °F 84.6 °F 66.2 °F 58% 29.89 in - Calm Calm - N/A   Clear
12:00 PM 86.0 °F 87.3 °F 64.4 °F 48% 29.86 in - WSW 6.9 mph - N/A   Clear
1:00 PM 86.0 °F 88.2 °F 66.2 °F 51% 29.83 in - SSW 6.9 mph - N/A   Clear
2:00 PM 87.8 °F 89.4 °F 64.4 °F 46% 29.80 in - WSW 9.2 mph - N/A   Clear
3:00 PM 87.8 °F 88.5 °F 62.6 °F 43% 29.80 in - WSW 9.2 mph - N/A   Clear
4:00 PM 87.8 °F 89.4 °F 64.4 °F 46% 29.80 in - West 11.5 mph - N/A   Clear
5:00 PM 86.0 °F 87.3 °F 64.4 °F 48% 29.80 in - WSW 11.5 mph - N/A   Clear
6:00 PM 82.4 °F 84.6 °F 66.2 °F 58% 29.83 in - West 11.5 mph - N/A   Clear
7:00 PM 80.6 °F 83.2 °F 68.0 °F 65% 29.86 in - West 6.9 mph - N/A   Clear
8:00 PM 78.8 °F - 68.0 °F 69% 29.86 in - West 4.6 mph - N/A   Clear
9:00 PM 78.8 °F - 68.0 °F 69% 29.89 in - West 3.5 mph - N/A   Clear
10:00 PM 77.0 °F - 69.8 °F 78% 29.89 in - WNW 3.5 mph - N/A   Clear
11:00 PM 77.0 °F - 64.4 °F 65% 29.89 in - WNW 4.6 mph - N/A   Clear